Lapse_Rate
4.5 4.5 4.3 4.1 4.3 4.0 4.0 3.9 4.4 4.3 4.4 4.3 4.2 4.6 4.4 4.6 4.5 4.6 5.1 4.5 5.1 5.4 5.6 5.6 5.5 5.6 5.6 5.6 5.6 5.5 5.2 5.2 5.3 5.5 5.4 5.4 5.4 5.7 5.8 6.2 6.2 6.4 6.5
4.5 4.3 3.6 3.7 3.9 4.2 3.8 3.7 4.2 4.5 4.6 4.8 4.8 4.6 4.9 4.8 4.7 4.5 4.9 5.1 4.6 5.1 5.5 5.9 5.9 6.0 6.2 6.1 6.0 5.7 5.6 5.6 5.6 5.7 5.6 5.5 5.5 5.8 5.8 6.1 6.0 6.1 6.4
4.8 4.4 4.2 4.1 4.1 3.6 3.7 3.3 3.3 4.2 4.9 4.6 5.7 5.2 5.1 5.3 5.0 4.9 5.0 5.0 5.1 4.7 5.1 5.8 6.2 6.3 6.6 6.7 6.4 6.5 6.3 6.2 5.9 5.9 6.1 5.8 5.7 5.8 6.0 5.8 5.9 6.2 6.3
5.1 4.4 3.9 4.7 4.2 3.8 3.6 3.7 4.2 4.4 4.9 5.1 5.6 5.6 5.5 5.3 5.5 5.3 4.9 5.0 5.2 5.3 5.0 5.0 5.1 5.4 5.6 5.9 6.4 6.7 6.5 6.2 5.9 5.9 5.8 5.9 5.9 6.1 6.1 5.9 5.7 5.8 6.2
5.3 4.8 4.1 4.3 3.9 4.2 3.9 3.8 3.6 4.7 4.6 4.8 5.2 5.8 5.8 6.0 5.7 5.3 5.4 5.3 5.1 4.8 5.1 4.8 4.7 4.8 4.9 5.0 5.7 6.2 6.4 6.0 5.7 5.8 5.9 6.1 6.1 6.2 6.2 6.0 5.9 6.0 6.2
5.0 5.4 5.0 4.3 4.1 4.8 4.8 4.0 4.2 4.2 5.3 5.6 5.6 5.7 5.6 5.5 5.4 5.5 5.9 5.4 5.1 4.7 4.8 4.7 5.0 5.3 4.7 4.9 5.5 6.0 6.1 5.8 5.5 5.6 5.6 5.5 5.8 6.0 6.1 6.2 6.3 6.5 6.5
4.9 5.3 5.1 4.1 4.4 4.9 4.9 4.6 4.2 4.6 4.7 5.6 5.8 5.4 5.6 5.3 5.5 5.7 5.4 5.7 5.1 4.6 4.4 4.2 4.6 4.3 4.7 4.4 4.8 5.4 5.9 5.9 5.5 5.3 5.4 5.4 5.9 6.0 5.8 6.1 6.2 6.5 6.4
5.5 5.1 4.7 3.4 3.6 4.0 5.1 4.8 4.1 4.5 5.9 5.6 6.9 6.6 6.9 6.6 5.5 5.2 4.9 5.1 5.1 4.1 3.9 3.2 3.5 3.8 4.0 4.0 4.0 3.7 4.3 5.2 5.8 5.8 5.6 5.5 6.0 6.1 5.9 6.2 6.0 6.2 6.4
5.4 5.3 5.0 3.7 3.7 3.7 4.0 4.1 4.6 4.7 5.3 5.2 6.1 7.4 6.2 7.3 5.4 4.5 4.5 4.4 4.2 3.7 3.0 3.0 3.0 3.1 3.2 3.1 2.7 2.9 3.1 3.7 5.2 5.6 6.0 5.9 6.8 6.8 6.7 6.3 6.4 6.2 6.3
5.3 5.2 4.7 4.5 3.5 4.1 3.5 3.9 4.4 4.8 5.6 5.4 5.3 5.1 5.0 5.2 6.2 5.1 4.1 3.9 3.7 3.8 3.4 2.8 2.8 2.3 2.3 2.1 1.7 2.0 2.1 2.5 3.6 4.8 5.4 5.4 5.8 6.4 7.3 6.6 6.7 6.8 6.3
5.6 5.2 5.2 4.4 3.7 3.8 3.8 3.5 4.8 4.7 4.9 6.1 5.9 5.5 5.1 4.9 4.4 4.4 3.4 3.4 2.9 2.7 3.0 2.7 2.4 2.1 1.6 1.5 1.5 1.6 1.3 2.0 2.8 3.6 4.8 5.3 5.8 6.0 7.0 6.9 6.6 6.8 7.0
5.1 5.5 5.4 5.0 4.2 3.9 3.3 3.7 3.4 4.2 4.7 5.7 5.5 5.4 5.5 5.4 4.9 4.5 4.1 2.9 3.2 3.1 2.5 2.5 2.1 1.6 1.5 1.4 1.0 1.3 1.7 1.9 2.4 2.9 4.5 5.1 4.7 5.2 6.2 7.0 6.5 6.2 6.6
6.0 6.1 5.4 5.2 5.1 4.7 3.1 3.6 3.5 3.9 4.0 5.3 5.4 5.3 5.7 5.7 4.7 5.3 4.5 3.3 4.0 2.2 1.6 0.9 1.2 1.2 0.9 0.9 0.9 0.9 1.3 1.2 2.2 2.7 3.7 3.4 2.9 3.3 4.1 5.4 5.8 5.6 6.0
6.1 6.1 6.0 5.0 5.1 4.4 4.5 3.9 3.7 4.2 4.5 4.2 5.9 5.7 5.1 5.5 4.7 4.7 4.4 4.2 3.4 2.8 1.8 2.4 0.2 0.5 0.5 0.5 0.6 0.4 1.1 0.7 1.4 1.9 2.6 2.0 1.8 1.8 3.0 4.3 4.9 5.0 5.4
6.3 5.4 6.1 6.0 5.4 5.6 5.0 4.5 4.7 4.6 4.8 5.3 5.6 5.9 5.7 5.0 4.5 5.2 5.0 4.7 6.6 5.9 3.8 2.5 1.2 -0.1 -0.3 -0.5 -0.3 -0.0 0.4 -0.0 0.5 1.3 1.7 1.6 1.5 1.8 2.0 2.9 3.5 4.7 5.4
6.7 6.7 6.7 6.4 6.2 5.3 5.0 5.4 5.4 5.4 5.2 5.4 5.5 5.4 5.4 5.6 4.0 4.6 4.1 4.2 4.7 6.2 6.4 3.8 1.0 -0.4 -0.9 -0.8 -0.4 0.6 0.5 -0.3 0.0 0.3 0.7 1.1 1.5 1.5 1.7 2.5 3.4 3.7 4.5
6.1 6.5 6.8 7.2 6.7 5.7 5.4 5.4 5.7 5.6 5.3 5.1 5.2 5.6 5.1 5.2 3.6 3.8 4.1 3.8 4.1 2.8 4.4 1.5 0.2 -0.2 -0.7 -0.1 -0.3 0.0 -0.0 0.4 0.5 -0.5 -0.0 0.8 1.2 1.5 1.7 2.3 3.3 3.4 4.1
6.4 6.4 6.3 6.5 6.8 6.9 5.7 5.4 5.4 5.6 5.3 5.2 5.4 5.5 4.8 4.2 3.6 3.8 4.0 3.6 3.3 2.1 2.8 4.5 -0.1 -1.2 -0.4 -0.0 0.5 0.7 0.3 -0.8 -0.1 -0.7 -0.4 -0.1 0.7 1.0 1.7 2.2 2.5 3.0 4.4
6.8 6.4 6.1 6.2 6.6 6.7 5.9 5.8 6.3 5.9 5.4 5.3 5.7 5.2 4.8 3.5 3.1 3.3 2.9 3.0 2.7 1.1 1.9 1.2 0.2 -1.2 -0.9 -0.8 -1.4 -1.0 0.4 0.0 -1.1 -0.4 -1.2 -0.1 0.7 1.5 2.0 3.0 2.9 4.5 4.6
6.6 6.9 6.2 6.0 6.0 6.6 5.9 6.1 5.6 5.6 5.2 4.7 5.1 4.7 3.4 3.6 3.2 2.9 2.1 2.8 2.1 1.7 1.2 1.4 -0.4 -0.6 -0.6 -0.8 -0.5 0.0 0.4 -1.5 -0.3 -0.9 -1.1 -0.8 -0.3 0.6 1.4 2.8 4.2 4.4 5.1
4.9 4.9 5.5 4.4 4.2 4.1 4.0 4.9 4.9 4.6 5.0 5.0 3.9 3.8 3.8 3.3 1.9 3.9 3.7 2.9 2.2 2.3 2.0 2.0 -0.3 -1.0 -0.7 -1.0 -0.8 -0.4 0.5 0.5 -0.4 -0.2 -0.3 -0.3 0.3 1.0 1.2 2.3 3.6 4.1 4.0
3.2 2.7 3.5 3.7 3.1 2.5 2.3 2.9 3.8 4.0 4.1 4.6 4.6 3.8 3.7 2.6 2.2 1.4 1.4 1.3 2.9 3.4 2.9 2.7 2.0 1.0 0.6 0.5 -1.4 -0.1 0.4 0.9 2.3 -1.9 -0.6 0.0 -0.3 0.8 1.3 1.3 2.4 3.5 3.9
1.8 1.0 0.7 1.2 0.9 1.2 1.3 2.2 2.3 3.2 3.6 3.2 3.0 2.9 2.7 1.9 1.5 2.8 2.2 2.1 2.0 1.7 2.8 3.1 3.6 2.3 2.0 -0.5 -1.1 -0.2 0.7 1.3 2.2 -0.1 0.8 1.8 0.4 1.4 1.6 1.6 2.0 3.8 4.6
0.0 0.1 0.2 -0.3 -0.3 0.1 0.7 0.9 0.7 0.5 0.2 -0.1 0.1 0.1 0.5 0.3 0.4 0.8 1.1 1.0 0.5 0.0 0.1 0.6 2.3 0.6 -0.5 -0.8 1.3 1.2 1.4 1.9 1.2 0.6 1.2 2.7 1.4 2.0 1.7 1.8 1.9 4.1 4.7
0.5 0.4 0.8 0.9 0.6 0.4 -0.0 0.2 0.7 0.5 0.2 -0.4 -0.9 -0.3 -0.2 -0.2 0.9 0.8 0.1 0.3 -0.0 0.3 0.9 1.6 1.7 1.7 1.7 1.4 0.8 0.9 0.8 1.7 1.5 1.2 0.5 2.4 2.1 2.2 1.8 2.5 2.3 2.8 4.5
0.0 0.4 0.3 0.5 0.7 1.0 1.0 0.9 0.6 0.9 1.0 0.6 0.8 0.6 1.1 1.6 2.2 2.5 1.7 0.8 0.4 -0.1 0.0 0.1 0.4 1.3 1.4 2.0 2.4 2.0 1.0 1.0 1.4 1.6 1.7 2.9 1.8 2.7 3.8 1.6 1.4 1.8 3.3
Wind_Speed
9 13 11 12 12 12 13 12 11 11 11 11 10 10 9 9 8 6 6 7 6 7 7 7 6 5 4 4 4 3 4 4 3 2 2 1 1 2 4 5 7 7 8
15 15 13 13 13 14 13 14 12 11 9 8 9 10 9 8 8 8 7 7 8 7 7 7 6 5 5 5 6 6 7 7 6 6 5 5 3 2 3 4 5 5 6
19 17 12 11 15 15 14 12 11 9 7 7 7 9 8 9 8 8 7 6 7 8 8 7 6 7 7 7 8 10 11 11 10 10 7 7 5 4 4 5 6 6 7
21 18 9 11 15 15 14 12 8 7 7 6 5 5 7 9 9 8 7 7 7 7 8 8 7 5 5 4 3 2 2 9 14 12 9 8 6 6 6 7 8 8 8
21 17 14 16 18 15 12 10 8 9 8 6 5 4 5 6 9 8 8 9 8 7 6 7 7 7 7 7 4 2 2 1 3 3 3 4 2 1 2 4 6 9 10
22 19 15 16 19 9 9 9 11 9 7 7 5 4 3 4 7 7 8 8 9 9 8 7 5 5 5 6 5 2 4 6 5 5 5 3 1 1 0 2 3 5 7
23 21 12 12 16 12 13 13 9 12 7 7 4 2 2 3 5 5 6 7 8 8 7 6 6 4 4 5 4 4 4 5 5 4 1 1 2 0 2 4 4 4 4
22 19 12 11 13 9 13 14 12 8 8 9 5 4 3 3 4 5 4 4 5 6 7 7 6 6 6 5 5 4 4 2 3 3 2 3 3 3 4 5 2 1 2
22 21 18 11 13 11 11 13 13 13 10 8 8 4 3 6 3 3 6 5 6 4 6 7 6 6 6 6 5 4 4 3 3 4 4 2 5 5 5 5 4 3 3
18 23 20 16 13 10 11 12 11 12 11 10 6 6 2 3 4 3 3 5 6 7 7 7 8 8 9 7 7 6 6 5 3 3 4 5 8 10 9 6 7 5 3
14 17 18 15 14 11 12 13 12 13 11 10 10 6 5 3 2 2 3 4 4 5 5 7 9 9 9 9 8 8 8 6 6 3 6 8 10 11 11 7 8 5 5
11 13 15 13 13 12 13 13 14 14 11 9 8 8 8 5 4 3 2 3 6 5 6 6 8 9 9 8 7 7 7 6 5 5 3 4 6 9 10 8 8 5 3
9 13 14 13 12 14 14 14 14 15 14 12 12 10 9 9 4 4 3 2 4 3 4 5 8 9 9 9 8 10 9 7 5 4 3 1 5 7 7 7 6 3 1
11 13 13 14 14 15 15 15 12 12 13 11 16 14 10 10 7 5 4 4 2 4 4 5 5 10 11 11 12 14 11 10 8 7 5 3 2 1 2 2 3 2 2
11 12 13 14 14 15 16 17 13 15 13 14 15 14 12 9 8 8 6 5 7 6 8 7 5 11 13 15 17 17 14 14 12 9 6 6 5 4 2 3 4 3 2
12 12 14 13 13 16 16 17 14 15 16 12 12 14 13 10 10 8 7 6 6 9 7 7 8 5 11 11 13 13 11 12 12 11 9 9 8 7 5 6 6 4 3
14 15 14 14 15 15 16 16 16 16 17 16 14 15 16 15 9 9 8 7 7 5 9 2 3 6 7 9 10 10 10 10 10 10 9 7 9 9 8 8 7 6 4
14 15 15 16 16 17 14 15 17 16 16 15 13 14 16 11 15 12 9 12 10 10 7 10 4 3 4 5 8 9 10 9 9 10 9 8 8 8 10 10 10 8 5
16 16 16 17 17 15 14 16 16 17 14 11 13 16 18 14 14 11 11 10 10 7 8 3 4 1 2 3 3 4 6 8 7 10 8 9 10 10 9 10 11 9 7
17 17 15 16 15 16 16 16 16 17 13 13 14 16 15 14 15 13 12 13 10 9 8 6 3 2 2 4 2 5 6 3 3 5 5 6 7 10 9 11 13 12 9
3 13 11 8 5 5 4 11 11 6 8 9 5 6 7 11 13 15 10 12 11 9 8 9 6 4 4 4 8 4 4 1 3 4 2 3 6 8 8 10 13 13 10
7 9 9 8 7 4 10 9 6 5 4 6 5 3 4 6 7 10 12 13 12 13 12 10 10 9 12 6 4 4 4 4 3 4 4 2 5 5 8 8 13 14 13
12 12 11 9 10 9 14 9 8 4 2 2 0 1 4 3 5 8 10 14 13 15 17 13 12 13 10 9 9 6 4 3 4 4 3 2 3 5 6 8 11 13 14
14 12 12 10 11 10 14 13 11 6 5 5 3 2 2 1 1 3 4 5 5 7 7 4 9 7 7 9 7 6 6 5 3 3 3 2 2 3 3 6 9 13 13
12 11 10 11 12 11 18 16 10 8 7 7 6 5 3 3 2 6 6 5 6 6 11 14 13 10 8 11 13 7 5 4 3 3 4 2 2 2 2 3 5 8 12
11 9 11 11 14 10 15 16 10 4 6 5 4 6 11 7 6 4 4 7 7 8 7 5 4 7 9 8 11 2 6 4 2 2 5 6 3 3 2 2 3 5 7
Wind_Direction
174 178 183 185 180 179 179 176 171 170 175 171 172 170 172 182 179 178 175 181 174 170 174 178 172 177 176 175 173 194 213 228 224 237 248 266 17 27 16 16 19 18 9
179 185 184 189 187 186 185 178 181 180 179 181 184 184 184 187 190 190 189 191 200 197 201 202 200 205 214 211 213 218 231 238 239 242 242 259 267 319 332 348 340 348 344
183 186 192 195 190 186 181 180 178 187 189 191 192 195 196 199 200 199 197 201 206 216 222 230 231 233 237 246 245 237 235 237 235 240 241 252 265 279 295 304 303 312 310
184 185 185 199 191 181 183 182 184 186 195 200 205 204 212 209 206 205 207 208 212 214 226 236 256 281 308 301 305 340 343 250 237 237 244 252 265 269 275 278 279 284 291
189 190 191 192 188 184 186 184 184 190 194 201 211 218 209 214 215 211 217 218 221 221 219 230 242 259 264 260 267 287 207 146 106 163 214 228 232 250 347 298 289 285 282
189 195 195 195 184 189 191 188 186 190 201 196 194 200 225 225 226 224 228 227 225 225 224 225 231 237 253 229 215 204 149 138 125 119 121 119 238 181 291 350 332 326 309
190 198 191 187 190 188 192 189 188 190 188 179 151 195 233 257 239 227 223 228 223 224 220 211 216 205 178 161 171 179 171 166 147 145 184 181 231 143 312 301 318 324 341
193 191 186 187 187 188 188 186 184 186 196 181 179 163 210 225 233 227 217 212 207 198 190 191 186 182 180 173 184 181 168 180 201 198 213 218 253 281 277 292 286 136 63
194 189 191 187 188 185 187 185 189 186 191 193 196 171 167 218 172 187 218 209 196 194 192 194 196 186 184 181 188 189 168 151 231 222 232 251 314 295 271 268 207 128 61
195 189 191 190 185 185 185 187 192 194 189 194 203 221 240 150 192 198 211 215 213 212 206 203 200 192 195 190 192 188 173 160 166 252 267 280 287 294 291 237 194 156 102
202 197 195 191 186 186 186 182 192 198 198 199 201 183 199 181 176 155 200 198 227 217 211 207 199 194 199 192 191 195 180 168 159 200 280 284 278 277 277 253 211 166 111
209 201 198 196 194 191 185 187 186 193 203 211 204 207 206 194 187 171 174 192 214 207 206 212 208 204 199 200 193 200 195 167 170 179 238 278 308 273 274 272 173 150 111
205 209 201 197 194 193 188 190 192 193 195 215 205 206 212 209 170 185 164 171 201 183 204 220 219 212 199 196 185 190 189 167 190 193 219 85 33 30 73 101 119 119 114
206 204 207 194 198 193 189 191 190 196 203 206 217 214 210 217 198 177 174 158 182 214 219 229 202 210 201 195 194 191 186 179 195 194 202 143 118 49 53 128 139 167 238
207 198 203 202 195 199 197 194 198 200 201 214 221 217 213 213 212 208 190 182 209 221 227 214 200 204 198 193 194 191 195 193 192 196 194 185 203 218 234 232 218 216 253
206 200 201 202 202 205 205 205 202 201 204 210 215 214 216 216 212 214 206 200 210 230 239 201 204 182 192 201 199 203 203 196 200 191 190 197 211 223 236 236 244 238 248
205 211 208 209 206 208 207 208 202 200 205 207 213 215 217 214 210 217 209 205 211 206 231 209 176 177 185 196 189 216 210 206 212 197 193 214 209 220 229 242 236 237 245
215 216 216 218 217 212 202 212 204 202 201 203 210 219 222 213 215 215 209 208 210 210 210 229 197 185 168 217 202 201 219 213 221 217 204 206 229 222 226 226 224 223 236
220 219 216 215 219 209 206 208 210 205 203 203 213 222 225 214 216 215 213 222 220 217 215 175 169 145 141 190 176 203 226 231 228 246 199 219 231 239 240 239 220 217 224
217 217 207 213 215 214 208 209 210 209 201 209 222 228 226 222 220 216 217 211 204 205 202 210 155 173 143 185 173 195 218 210 224 224 223 219 220 225 233 242 225 213 215
205 216 182 143 148 164 169 197 194 209 212 205 196 214 244 242 238 220 211 217 211 206 211 214 182 165 174 190 191 182 186 216 198 224 229 227 217 221 222 239 219 208 212
97 76 98 114 105 81 114 115 149 152 167 169 212 204 223 237 252 265 274 268 228 209 214 214 219 211 197 196 135 159 154 168 234 196 193 229 209 214 205 203 195 201 207
75 71 61 66 66 59 76 87 106 113 133 84 108 287 280 297 289 259 243 245 247 233 232 216 224 216 200 183 144 150 172 156 191 163 175 235 211 241 220 217 219 215 214
63 64 58 48 65 50 52 64 73 80 82 69 60 98 122 68 32 301 320 340 0 7 323 269 244 186 158 152 153 164 153 137 125 146 164 232 170 239 236 233 226 228 222
67 65 64 60 65 52 44 44 51 50 49 43 38 11 345 345 271 158 120 105 87 36 36 59 68 88 110 136 141 126 143 151 164 180 178 192 195 223 217 235 228 233 233
65 68 66 57 61 64 52 51 52 57 62 50 40 28 18 5 321 267 162 149 144 173 159 147 135 112 112 145 170 193 156 137 130 171 178 184 162 187 236 202 201 212 222